TimeCST,TemperatureF,Dew PointF,Humidity,Sea Level PressureIn,VisibilityMPH,Wind Direction,Wind SpeedMPH,Gust SpeedMPH,PrecipitationIn,Events,Conditions,WindDirDegrees,DateUTC
12:11 AM,-0.4,-2.2,92,30.34,10.0,Calm,Calm,-,N/A,,Clear,0,2013-03-06 06:11:00
12:31 AM,-0.4,-2.2,92,30.34,10.0,Calm,Calm,-,N/A,,Clear,0,2013-03-06 06:31:00
12:50 AM,-0.4,-4.0,85,30.34,10.0,Calm,Calm,-,N/A,,Clear,0,2013-03-06 06:50:00
1:11 AM,-0.4,-2.2,92,30.34,10.0,Calm,Calm,-,N/A,,Mostly Cloudy,0,2013-03-06 07:11:00
1:31 AM,-2.2,-5.8,85,30.34,10.0,Calm,Calm,-,N/A,,Overcast,0,2013-03-06 07:31:00
1:50 AM,-0.4,-4.0,85,30.34,7.0,Calm,Calm,-,N/A,,Overcast,0,2013-03-06 07:50:00
2:11 AM,-0.4,-4.0,85,30.34,0.2,Calm,Calm,-,N/A,Snow,Light Snow,0,2013-03-06 08:11:00
2:31 AM,-0.4,-4.0,85,30.35,0.5,Calm,Calm,-,N/A,Fog,Light Freezing Fog,0,2013-03-06 08:31:00
2:50 AM,-2.2,-5.8,85,30.35,0.5,Calm,Calm,-,N/A,Fog,Light Freezing Fog,0,2013-03-06 08:50:00
3:11 AM,-2.2,-5.8,85,30.35,0.2,Calm,Calm,-,N/A,Snow,Light Snow,0,2013-03-06 09:11:00
3:31 AM,-0.4,-4.0,85,30.35,0.8,Calm,Calm,-,N/A,,Overcast,0,2013-03-06 09:31:00
3:50 AM,-0.4,-2.2,92,30.35,3.0,Calm,Calm,-,N/A,,Overcast,0,2013-03-06 09:50:00
4:11 AM,-2.2,-5.8,85,30.35,0.5,Calm,Calm,-,N/A,Snow,Light Snow,0,2013-03-06 10:11:00
4:50 AM,-2.2,-5.8,85,30.36,10.0,Calm,Calm,-,N/A,,Overcast,0,2013-03-06 10:50:00
5:11 AM,-0.4,-2.2,92,30.36,1.5,Calm,Calm,-,N/A,,Overcast,0,2013-03-06 11:11:00
5:31 AM,1.4,-2.2,85,30.37,0.8,Calm,Calm,-,N/A,Snow,Light Snow,0,2013-03-06 11:31:00
5:50 AM,1.4,-2.2,85,30.38,0.5,Calm,Calm,-,N/A,Fog,Light Freezing Fog,0,2013-03-06 11:50:00
6:11 AM,1.4,-2.2,85,30.38,0.5,Calm,Calm,-,N/A,Snow,Light Snow,0,2013-03-06 12:11:00
6:31 AM,1.4,-2.2,85,30.39,2.0,Calm,Calm,-,N/A,Snow,Light Snow,0,2013-03-06 12:31:00
6:50 AM,1.4,-0.4,92,30.39,0.2,Calm,Calm,-,N/A,Snow,Light Snow,0,2013-03-06 12:50:00
7:11 AM,1.4,-0.4,92,30.39,1.0,Calm,Calm,-,N/A,Snow,Light Snow,0,2013-03-06 13:11:00
7:31 AM,1.4,-0.4,92,30.40,1.0,Calm,Calm,-,N/A,Snow,Light Snow,0,2013-03-06 13:31:00
7:50 AM,3.2,1.4,92,30.40,10.0,Calm,Calm,-,N/A,Snow,Light Snow,0,2013-03-06 13:50:00
8:11 AM,5.0,1.4,85,30.41,10.0,Calm,Calm,-,N/A,,Overcast,0,2013-03-06 14:11:00
8:31 AM,6.8,3.2,85,30.41,2.5,Calm,Calm,-,N/A,Snow,Light Snow,0,2013-03-06 14:31:00
8:50 AM,8.6,6.8,92,30.41,0.5,Calm,Calm,-,N/A,Snow,Light Snow,0,2013-03-06 14:50:00
9:10 AM,8.6,6.8,92,30.40,0.2,Calm,Calm,-,N/A,Snow,Light Snow,0,2013-03-06 15:10:00
9:31 AM,10.4,8.6,92,30.40,0.5,Calm,Calm,-,N/A,Snow,Light Snow,0,2013-03-06 15:31:00
9:50 AM,14.0,12.2,93,30.40,1.0,Calm,Calm,-,N/A,Snow,Light Snow,0,2013-03-06 15:50:00
10:11 AM,17.6,15.8,93,30.39,2.5,Calm,Calm,-,N/A,Snow,Light Snow,0,2013-03-06 16:11:00
10:31 AM,17.6,14.0,86,30.39,7.0,Calm,Calm,-,N/A,Snow,Light Snow,0,2013-03-06 16:31:00
10:50 AM,17.6,15.8,93,30.40,7.0,Calm,Calm,-,N/A,Snow,Light Snow,0,2013-03-06 16:50:00
11:10 AM,19.4,15.8,86,30.39,4.0,Calm,Calm,-,N/A,Snow,Light Snow,0,2013-03-06 17:10:00
11:31 AM,21.2,17.6,86,30.39,4.0,Calm,Calm,-,N/A,Snow,Light Snow,0,2013-03-06 17:31:00
11:50 AM,19.4,15.8,86,30.39,2.5,WSW,3.5,-,N/A,Snow,Light Snow,240,2013-03-06 17:50:00
12:11 PM,19.4,15.8,86,30.38,2.5,WSW,3.5,-,N/A,Snow,Light Snow,250,2013-03-06 18:11:00
12:50 PM,21.2,15.8,80,30.37,7.0,WSW,5.8,-,N/A,Snow,Light Snow,250,2013-03-06 18:50:00
1:11 PM,23.0,15.8,74,30.37,7.0,WSW,3.5,-,N/A,Snow,Light Snow,250,2013-03-06 19:11:00
1:31 PM,24.8,15.8,69,30.35,5.0,West,3.5,-,N/A,Snow,Light Snow,260,2013-03-06 19:31:00
1:50 PM,24.8,15.8,69,30.34,7.0,West,4.6,-,N/A,Snow,Light Snow,260,2013-03-06 19:50:00
2:11 PM,24.8,15.8,69,30.34,10.0,Calm,Calm,-,N/A,,Scattered Clouds,0,2013-03-06 20:11:00
2:31 PM,24.8,15.8,69,30.33,10.0,Calm,Calm,-,N/A,,Scattered Clouds,0,2013-03-06 20:31:00
3:11 PM,24.8,15.8,69,30.33,10.0,Calm,Calm,-,N/A,,Scattered Clouds,0,2013-03-06 21:11:00
3:31 PM,24.8,14.0,64,30.33,10.0,Calm,Calm,-,N/A,,Clear,0,2013-03-06 21:31:00
3:50 PM,24.8,14.0,64,30.33,10.0,Calm,Calm,-,N/A,,Clear,0,2013-03-06 21:50:00
4:11 PM,23.0,14.0,68,30.33,10.0,Calm,Calm,-,N/A,,Clear,0,2013-03-06 22:11:00
4:31 PM,23.0,12.2,63,30.32,10.0,Calm,Calm,-,N/A,,Clear,0,2013-03-06 22:31:00
4:50 PM,21.2,12.2,68,30.32,10.0,Calm,Calm,-,N/A,,Clear,0,2013-03-06 22:50:00
5:11 PM,19.4,12.2,74,30.33,10.0,Calm,Calm,-,N/A,,Clear,0,2013-03-06 23:11:00
5:31 PM,17.6,12.2,79,30.33,10.0,Calm,Calm,-,N/A,,Clear,0,2013-03-06 23:31:00
5:50 PM,14.0,8.6,79,30.33,10.0,Calm,Calm,-,N/A,,Clear,0,2013-03-06 23:50:00
6:11 PM,12.2,8.6,85,30.32,10.0,Calm,Calm,-,N/A,,Clear,0,2013-03-07 00:11:00
6:31 PM,8.6,6.8,92,30.33,10.0,Calm,Calm,-,N/A,,Clear,0,2013-03-07 00:31:00
6:50 PM,8.6,6.8,92,30.33,10.0,Calm,Calm,-,N/A,,Clear,0,2013-03-07 00:50:00
7:11 PM,6.8,3.2,85,30.33,10.0,Calm,Calm,-,N/A,,Clear,0,2013-03-07 01:11:00
7:30 PM,5.0,3.2,92,30.33,10.0,Calm,Calm,-,N/A,,Clear,0,2013-03-07 01:30:00
7:50 PM,3.2,1.4,92,30.33,10.0,Calm,Calm,-,N/A,,Clear,0,2013-03-07 01:50:00
8:11 PM,3.2,1.4,92,30.34,7.0,Calm,Calm,-,N/A,,Clear,0,2013-03-07 02:11:00
8:31 PM,3.2,-0.4,85,30.34,10.0,Calm,Calm,-,N/A,,Clear,0,2013-03-07 02:31:00
8:50 PM,1.4,-0.4,92,30.33,10.0,Calm,Calm,-,N/A,,Clear,0,2013-03-07 02:50:00
9:11 PM,1.4,-2.2,85,30.33,10.0,Calm,Calm,-,N/A,,Clear,0,2013-03-07 03:11:00
9:30 PM,-0.4,-4.0,85,30.33,10.0,Calm,Calm,-,N/A,,Clear,0,2013-03-07 03:30:00
9:50 PM,-2.2,-5.8,85,30.33,10.0,Calm,Calm,-,N/A,,Clear,0,2013-03-07 03:50:00
10:11 PM,-2.2,-5.8,85,30.32,10.0,Calm,Calm,-,N/A,,Clear,0,2013-03-07 04:11:00
10:30 PM,-4.0,-7.6,85,30.32,10.0,Calm,Calm,-,N/A,,Clear,0,2013-03-07 04:30:00
10:50 PM,-4.0,-7.6,85,30.33,10.0,Calm,Calm,-,N/A,,Clear,0,2013-03-07 04:50:00
11:11 PM,-2.2,-5.8,85,30.33,10.0,Calm,Calm,-,N/A,,Clear,0,2013-03-07 05:11:00
11:30 PM,-4.0,-7.6,85,30.32,10.0,Calm,Calm,-,N/A,,Clear,0,2013-03-07 05:30:00
11:50 PM,-5.8,-9.4,84,30.31,10.0,Calm,Calm,-,N/A,,Clear,0,2013-03-07 05:50:00